Find Starlink 11511

NORAD ID: 62468 Int'l Des: 2024-254 Owner: SPXS Country: US Constellation: starlink operational
別名: STARLINK-11511 [DTC] celestrak
LEOCIRCULAR

現在のビュー

3D地球を読み込み中...

About Starlink 11511

Starlink 11511 (NORAD 62468) is a starlink constellation satellite (v2 mini d2c) launched Dec 31, 2024 by SPXS of US. It operates in LEO, CIRCULAR orbit with a mass of 960.00 kg.

次回通過

Passes for default location (London). Set your location on the main map for personalized predictions.

高度履歴

Loading altitude history...

軌道要素

1 62468U 24254G 26263.90655118 .00102536 00000-0 79274-3 0 9996
2 62468 42.9998 126.2903 0001182 245.5517 114.5227 15.70840851100106
Epoch: Sep 20, 2026 • Age: 29 hours

現在のステータス

高度 355.8 km
遠地点 / 近地点 N/A
速度 7.70 km/s
衛星直下点 21.23°N, 99.19°E
打ち上げ日 Dec 31, 2024
運用期間 1.7 years
タイプ internet

技術仕様

分類 Payload
質量 960.00 kg
乾燥質量 910.00 kg
長さ 0.30 m
スパン 29.00 m
形状 ? Box + pan
製造者 SPXS
バスタイプ Starlink V2MD
フェーズステータス In Orbit
所有者/国 SPXS/US

Most Searched